^^
Station Historical Data
Daily Summary for March 10, 2018 Units:  English    Metric   Both
« Previous Day
Next Day »
Daily Weekly Monthly Yearly Custom
  High: Low: Average:
Temperature: TemperatureF °F 58.1 °F 71.3 °F
Dew Point: DewpointF °F 34.9 °F 45 °F
Humidity: Humidity% 17% 43%
Wind Speed: WindSpeedMPHmph 0.0mph 1.9mph
Wind Gust: WindSpeedGustMPHmph - -
Wind- - SW
Pressure: PressureIn in 29.65 in -
Precipitation: 0.00 in    
Historical Graphs
 
 
Tabular Data for March 10, 2018
Time Temperature Dew Point Pressure Wind Wind Speed Wind Gust Humidity Rainfall Rate (Hourly) solar Conditions
TemperatureF °F DewpointF °F PressureIn in Calm     Humidity% HourlyPrecipIn in SolarRadiationWatts/m^2 W/m2 Conditions
00:00 66.4 °F 49.6 °F 29.72 in Calm     55% 0.00 in 0.0 W/m2
00:05 66.0 °F 49.5 °F 29.72 in Calm     55% 0.00 in 0.0 W/m2
00:10 65.8 °F 49.6 °F 29.72 in Calm     56% 0.00 in 0.0 W/m2
00:16 65.7 °F 49.5 °F 29.72 in Calm     56% 0.00 in 0.0 W/m2
00:21 65.5 °F 49.8 °F 29.72 in Calm     57% 0.00 in 0.0 W/m2
00:26 65.3 °F 50.2 °F 29.72 in Calm     58% 0.00 in 0.0 W/m2
00:31 65.1 °F 50.0 °F 29.72 in Calm     58% 0.00 in 0.0 W/m2
00:36 64.9 °F 50.2 °F 29.72 in Calm     59% 0.00 in 0.0 W/m2
00:41 64.8 °F 50.2 °F 29.72 in Calm     59% 0.00 in 0.0 W/m2
00:47 64.6 °F 49.5 °F 29.72 in Calm   3.0 mph 58% 0.00 in 0.0 W/m2
00:52 64.8 °F 50.2 °F 29.72 in Calm   2.0 mph 59% 0.00 in 0.0 W/m2
00:57 64.8 °F 49.6 °F 29.72 in Calm   1.0 mph 58% 0.00 in 0.0 W/m2
01:03 64.8 °F 50.2 °F 29.72 in Calm     59% 0.00 in 0.0 W/m2
01:08 64.8 °F 49.6 °F 29.72 in Calm     58% 0.00 in 0.0 W/m2
01:13 64.6 °F 50.0 °F 29.72 in Calm     59% 0.00 in 0.0 W/m2
01:19 64.6 °F 50.4 °F 29.71 in Calm     60% 0.00 in 0.0 W/m2
01:24 64.2 °F 50.0 °F 29.71 in Calm     60% 0.00 in 0.0 W/m2
01:29 64.0 °F 50.4 °F 29.71 in Calm     61% 0.00 in 0.0 W/m2
01:35 63.9 °F 50.5 °F 29.71 in Calm     62% 0.00 in 0.0 W/m2
01:40 63.7 °F 50.9 °F 29.71 in Calm     63% 0.00 in 0.0 W/m2
01:45 63.5 °F 50.7 °F 29.71 in Calm     63% 0.00 in 0.0 W/m2
01:51 63.1 °F 50.7 °F 29.71 in Calm     64% 0.00 in 0.0 W/m2
01:56 63.0 °F 50.5 °F 29.71 in Calm   1.0 mph 64% 0.00 in 0.0 W/m2
02:01 62.8 °F 50.9 °F 29.70 in Calm   1.0 mph 65% 0.00 in 0.0 W/m2
02:07 62.4 °F 50.9 °F 29.70 in Calm   2.0 mph 66% 0.00 in 0.0 W/m2
02:12 62.2 °F 50.7 °F 29.70 in Calm     66% 0.00 in 0.0 W/m2
02:17 62.1 °F 50.5 °F 29.70 in Calm   1.0 mph 66% 0.00 in 0.0 W/m2
02:23 61.9 °F 50.7 °F 29.70 in Calm     67% 0.00 in 0.0 W/m2
02:28 61.7 °F 50.7 °F 29.70 in Calm   1.0 mph 67% 0.00 in 0.0 W/m2
02:33 61.5 °F 50.5 °F 29.70 in Calm     67% 0.00 in 0.0 W/m2
02:39 61.3 °F 50.4 °F 29.70 in Calm   1.0 mph 67% 0.00 in 0.0 W/m2
02:44 61.2 °F 50.5 °F 29.70 in Calm   1.0 mph 68% 0.00 in 0.0 W/m2
02:49 61.2 °F 50.5 °F 29.70 in Calm   2.0 mph 68% 0.00 in 0.0 W/m2
02:54 61.2 °F 50.9 °F 29.70 in Calm   2.0 mph 69% 0.00 in 0.0 W/m2
02:59 61.0 °F 50.7 °F 29.70 in Calm   1.0 mph 69% 0.00 in 0.0 W/m2
03:05 61.0 °F 51.1 °F 29.70 in Calm   1.0 mph 70% 0.00 in 0.0 W/m2
03:10 60.8 °F 50.9 °F 29.70 in Calm     70% 0.00 in 0.0 W/m2
03:15 60.6 °F 51.1 °F 29.70 in Calm     71% 0.00 in 0.0 W/m2
03:20 60.6 °F 51.6 °F 29.70 in Calm     72% 0.00 in 0.0 W/m2
03:25 60.4 °F 51.8 °F 29.70 in Calm     73% 0.00 in 0.0 W/m2
03:30 60.3 °F 51.3 °F 29.70 in Calm     72% 0.00 in 0.0 W/m2
03:35 60.3 °F 51.6 °F 29.70 in Calm   1.0 mph 73% 0.00 in 0.0 W/m2
03:40 60.1 °F 51.4 °F 29.70 in Calm     73% 0.00 in 0.0 W/m2
03:45 59.9 °F 51.3 °F 29.70 in Calm     73% 0.00 in 0.0 W/m2
03:50 59.7 °F 51.4 °F 29.69 in Calm     74% 0.00 in 0.0 W/m2
03:55 59.5 °F 51.3 °F 29.69 in Calm     74% 0.00 in 0.0 W/m2
04:01 59.4 °F 51.4 °F 29.69 in Calm     75% 0.00 in 0.0 W/m2
04:06 59.4 °F 51.1 °F 29.69 in Calm     74% 0.00 in 0.0 W/m2
04:12 59.2 °F 50.9 °F 29.69 in Calm   2.0 mph 74% 0.00 in 0.0 W/m2
04:17 59.2 °F 50.9 °F 29.69 in Calm     74% 0.00 in 0.0 W/m2
04:22 58.8 °F 50.5 °F 29.69 in Calm   2.0 mph 74% 0.00 in 0.0 W/m2
04:27 58.8 °F 50.5 °F 29.69 in Calm   1.0 mph 74% 0.00 in 0.0 W/m2
04:32 58.6 °F 50.4 °F 29.69 in SE 2.0 mph 2.0 mph 74% 0.00 in 0.0 W/m2
04:37 58.6 °F 50.7 °F 29.68 in Calm   1.0 mph 75% 0.00 in 0.0 W/m2
04:43 58.5 °F 50.2 °F 29.68 in Calm     74% 0.00 in 0.0 W/m2
04:48 58.5 °F 50.5 °F 29.68 in Calm   2.0 mph 75% 0.00 in 0.0 W/m2
04:53 58.5 °F 50.5 °F 29.68 in Calm   1.0 mph 75% 0.00 in 0.0 W/m2
04:58 58.5 °F 50.5 °F 29.68 in SE 0.9 mph 1.0 mph 75% 0.00 in 0.0 W/m2
05:03 58.5 °F 50.5 °F 29.68 in SE 0.9 mph 1.0 mph 75% 0.00 in 0.0 W/m2
05:08 58.5 °F 50.5 °F 29.68 in Calm   1.0 mph 75% 0.00 in 0.0 W/m2
05:13 58.5 °F 50.5 °F 29.68 in Calm   2.0 mph 75% 0.00 in 0.0 W/m2
05:18 58.3 °F 50.0 °F 29.68 in Calm   3.0 mph 74% 0.00 in 0.0 W/m2
05:24 58.5 °F 49.8 °F 29.68 in Calm     73% 0.00 in 0.0 W/m2
05:29 58.3 °F 49.6 °F 29.68 in Calm     73% 0.00 in 0.0 W/m2
05:34 58.3 °F 49.6 °F 29.69 in Calm     73% 0.00 in 0.0 W/m2
05:40 58.1 °F 49.5 °F 29.69 in Calm     73% 0.00 in 0.0 W/m2
05:45 58.1 °F 49.5 °F 29.69 in Calm   2.0 mph 73% 0.00 in 0.0 W/m2
05:50 58.1 °F 49.1 °F 29.69 in Calm     72% 0.00 in 0.0 W/m2
05:55 58.3 °F 49.3 °F 29.69 in Calm     72% 0.00 in 0.0 W/m2
06:00 58.3 °F 49.3 °F 29.69 in Calm     72% 0.00 in 0.0 W/m2
06:05 58.3 °F 48.9 °F 29.69 in SE 0.9 mph 1.0 mph 71% 0.00 in 0.0 W/m2
06:10 58.5 °F 49.1 °F 29.69 in Calm   3.0 mph 71% 0.00 in 0.0 W/m2
06:15 58.5 °F 48.7 °F 29.69 in Calm   3.0 mph 70% 0.00 in 0.0 W/m2
06:21 58.5 °F 48.7 °F 29.70 in Calm   1.0 mph 70% 0.00 in 0.0 W/m2
06:26 58.6 °F 48.9 °F 29.70 in Calm   1.0 mph 70% 0.00 in 0.0 W/m2
06:31 58.6 °F 48.2 °F 29.70 in SE 0.9 mph 2.0 mph 68% 0.00 in 0.0 W/m2
06:36 58.6 °F 48.6 °F 29.70 in East 2.0 mph 4.0 mph 69% 0.00 in 0.0 W/m2
06:41 58.6 °F 48.9 °F 29.70 in East 2.9 mph 4.0 mph 70% 0.00 in 0.0 W/m2
06:46 58.6 °F 48.9 °F 29.71 in Calm   4.0 mph 70% 0.00 in 0.0 W/m2
06:51 58.5 °F 48.7 °F 29.71 in Calm   3.0 mph 70% 0.00 in 0.0 W/m2
06:56 58.5 °F 48.4 °F 29.71 in ESE 0.9 mph 3.0 mph 69% 0.00 in 0.0 W/m2
07:01 58.5 °F 47.5 °F 29.71 in East 2.9 mph 3.0 mph 67% 0.00 in 7.0 W/m2
07:06 58.5 °F 47.1 °F 29.71 in ENE 2.0 mph 4.0 mph 66% 0.00 in 12.0 W/m2
07:12 58.6 °F 46.9 °F 29.71 in ENE 0.9 mph 2.0 mph 65% 0.00 in 16.0 W/m2
07:18 58.8 °F 46.2 °F 29.71 in ENE 0.9 mph 1.0 mph 63% 0.00 in 23.0 W/m2
07:23 59.0 °F 45.5 °F 29.72 in East 0.9 mph 4.0 mph 61% 0.00 in 25.0 W/m2
07:28 59.4 °F 45.9 °F 29.72 in ENE 2.9 mph 3.0 mph 61% 0.00 in 25.0 W/m2
07:33 59.5 °F 46.6 °F 29.72 in ESE 4.0 mph 6.0 mph 62% 0.00 in 26.0 W/m2
07:38 59.9 °F 47.3 °F 29.72 in East 2.0 mph 3.0 mph 63% 0.00 in 26.0 W/m2
07:43 60.1 °F 47.5 °F 29.72 in ESE 0.9 mph 5.0 mph 63% 0.00 in 30.0 W/m2
07:48 60.4 °F 47.3 °F 29.72 in Calm   1.0 mph 62% 0.00 in 30.0 W/m2
07:53 60.8 °F 48.2 °F 29.72 in Calm     63% 0.00 in 33.0 W/m2
07:59 61.3 °F 47.8 °F 29.72 in Calm   2.0 mph 61% 0.00 in 32.0 W/m2
08:04 61.9 °F 48.2 °F 29.72 in Calm   3.0 mph 61% 0.00 in 28.0 W/m2
08:09 62.2 °F 48.2 °F 29.72 in NE 4.0 mph 4.0 mph 60% 0.00 in 26.0 W/m2
08:14 63.0 °F 46.9 °F 29.73 in ENE 0.9 mph 5.0 mph 56% 0.00 in 26.0 W/m2
08:19 63.7 °F 47.7 °F 29.73 in NE 2.9 mph 5.0 mph 56% 0.00 in 26.0 W/m2
08:24 64.2 °F 47.7 °F 29.73 in ENE 2.9 mph 6.0 mph 55% 0.00 in 26.0 W/m2
08:29 64.9 °F 47.8 °F 29.73 in ENE 2.0 mph 4.0 mph 54% 0.00 in 26.0 W/m2
08:34 65.7 °F 46.6 °F 29.73 in NE 0.9 mph 5.0 mph 50% 0.00 in 28.0 W/m2
08:40 66.4 °F 47.1 °F 29.73 in ENE 2.9 mph 5.0 mph 50% 0.00 in 28.0 W/m2
08:45 67.1 °F 46.8 °F 29.73 in Calm   4.0 mph 48% 0.00 in 28.0 W/m2
08:50 67.6 °F 46.8 °F 29.73 in Calm   5.0 mph 47% 0.00 in 30.0 W/m2
08:55 68.4 °F 46.8 °F 29.73 in Calm   5.0 mph 46% 0.00 in 30.0 W/m2
09:00 68.7 °F 45.9 °F 29.73 in NE 2.0 mph 2.0 mph 44% 0.00 in 30.0 W/m2
09:05 69.3 °F 46.9 °F 29.73 in Calm   2.0 mph 45% 0.00 in 32.0 W/m2
09:10 69.6 °F 46.2 °F 29.73 in Calm   3.0 mph 43% 0.00 in 32.0 W/m2
09:15 70.2 °F 47.3 °F 29.73 in Calm   1.0 mph 44% 0.00 in 33.0 W/m2
09:20 70.5 °F 46.9 °F 29.73 in Calm   1.0 mph 43% 0.00 in 35.0 W/m2
09:25 71.1 °F 47.5 °F 29.73 in Calm   1.0 mph 43% 0.00 in 44.0 W/m2
09:31 71.4 °F 45.9 °F 29.73 in NNW 0.9 mph 3.0 mph 40% 0.00 in 46.0 W/m2
09:36 71.8 °F 46.8 °F 29.74 in Calm   1.0 mph 41% 0.00 in 47.0 W/m2
09:41 72.0 °F 46.9 °F 29.74 in Calm     41% 0.00 in 116.0 W/m2
09:46 72.3 °F 46.0 °F 29.74 in Calm   4.0 mph 39% 0.00 in 652.0 W/m2
09:51 72.7 °F 46.2 °F 29.74 in WSW 0.9 mph 1.0 mph 39% 0.00 in 671.0 W/m2
09:56 73.2 °F 46.8 °F 29.74 in West 2.9 mph 3.0 mph 39% 0.00 in 687.0 W/m2
10:01 73.8 °F 46.6 °F 29.73 in West 2.0 mph 2.0 mph 38% 0.00 in 703.0 W/m2
10:06 74.7 °F 46.6 °F 29.74 in NNW 0.9 mph 3.0 mph 37% 0.00 in 721.0 W/m2
10:12 75.4 °F 45.1 °F 29.73 in Calm     34% 0.00 in 735.0 W/m2
10:17 75.9 °F 47.1 °F 29.73 in WNW 4.9 mph 6.0 mph 36% 0.00 in 747.0 W/m2
10:22 76.3 °F 47.3 °F 29.73 in WNW 0.9 mph 2.0 mph 36% 0.00 in 763.0 W/m2
10:27 76.8 °F 47.1 °F 29.73 in Calm   5.0 mph 35% 0.00 in 780.0 W/m2
10:32 77.4 °F 47.5 °F 29.73 in WSW 2.9 mph 3.0 mph 35% 0.00 in 796.0 W/m2
10:37 77.4 °F 46.8 °F 29.73 in NNW 2.0 mph 5.0 mph 34% 0.00 in 807.0 W/m2
10:42 77.7 °F 47.1 °F 29.73 in SW 0.9 mph 3.0 mph 34% 0.00 in 824.0 W/m2
10:47 78.1 °F 45.9 °F 29.73 in Calm   2.0 mph 32% 0.00 in 830.0 W/m2
10:52 78.4 °F 46.9 °F 29.73 in Calm   1.0 mph 33% 0.00 in 846.0 W/m2
10:57 79.0 °F 45.7 °F 29.72 in NW 2.0 mph 7.0 mph 31% 0.00 in 861.0 W/m2
11:03 79.5 °F 46.2 °F 29.73 in Calm   1.0 mph 31% 0.00 in 872.0 W/m2
11:08 80.1 °F 45.0 °F 29.72 in SW 2.9 mph 5.0 mph 29% 0.00 in 884.0 W/m2
11:13 80.4 °F 46.2 °F 29.72 in WNW 2.9 mph 6.0 mph 30% 0.00 in 898.0 W/m2
11:18 80.4 °F 45.3 °F 29.72 in WNW 2.0 mph 7.0 mph 29% 0.00 in 905.0 W/m2
11:23 80.8 °F 46.4 °F 29.72 in WSW 2.9 mph 3.0 mph 30% 0.00 in 918.0 W/m2
11:28 81.0 °F 45.7 °F 29.72 in NNW 4.9 mph 5.0 mph 29% 0.00 in 925.0 W/m2
11:33 81.5 °F 45.3 °F 29.72 in NW 0.9 mph 7.0 mph 28% 0.00 in 935.0 W/m2
11:38 81.7 °F 45.3 °F 29.72 in WNW 4.9 mph 9.0 mph 28% 0.00 in 942.0 W/m2
11:43 81.7 °F 45.3 °F 29.71 in WSW 0.9 mph 2.0 mph 28% 0.00 in 949.0 W/m2
11:48 81.9 °F 45.5 °F 29.71 in Calm   2.0 mph 28% 0.00 in 958.0 W/m2
11:54 82.8 °F 46.4 °F 29.71 in NW 2.9 mph 4.0 mph 28% 0.00 in 963.0 W/m2
11:59 82.9 °F 45.5 °F 29.71 in North 2.9 mph 4.0 mph 27% 0.00 in 970.0 W/m2
12:04 83.1 °F 46.6 °F 29.70 in WNW 2.0 mph 2.0 mph 28% 0.00 in 976.0 W/m2
12:09 83.7 °F 46.2 °F 29.70 in WSW 6.9 mph 14.0 mph 27% 0.00 in 981.0 W/m2
12:14 83.7 °F 45.1 °F 29.70 in South 8.1 mph 10.0 mph 26% 0.00 in 983.0 W/m2
12:19 83.5 °F 45.0 °F 29.70 in West 2.9 mph 6.0 mph 26% 0.00 in 983.0 W/m2
12:24 83.1 °F 44.6 °F 29.70 in NW 2.0 mph 7.0 mph 26% 0.00 in 986.0 W/m2
12:29 82.9 °F 44.6 °F 29.70 in West 2.0 mph 8.0 mph 26% 0.00 in 991.0 W/m2
12:34 82.8 °F 45.3 °F 29.69 in WNW 8.1 mph 9.0 mph 27% 0.00 in 998.0 W/m2
12:39 82.9 °F 45.5 °F 29.70 in West 2.9 mph 12.0 mph 27% 0.00 in 1014.0 W/m2
12:44 83.1 °F 44.6 °F 29.69 in WNW 4.9 mph 10.0 mph 26% 0.00 in 1021.0 W/m2
12:50 83.5 °F 43.9 °F 29.69 in NW 0.9 mph 9.0 mph 25% 0.00 in 1013.0 W/m2
12:55 84.0 °F 43.3 °F 29.69 in NNW 6.0 mph 7.0 mph 24% 0.00 in 1021.0 W/m2
13:00 84.6 °F 45.9 °F 29.69 in WSW 4.9 mph 8.0 mph 26% 0.00 in 1028.0 W/m2
13:05 84.6 °F 45.0 °F 29.68 in WSW 2.9 mph 10.0 mph 25% 0.00 in 1076.0 W/m2
13:10 84.0 °F 45.5 °F 29.68 in Calm   5.0 mph 26% 0.00 in 1067.0 W/m2
13:15 84.0 °F 44.4 °F 29.68 in WSW 0.9 mph 7.0 mph 25% 0.00 in 1107.0 W/m2
13:20 84.4 °F 44.8 °F 29.68 in Calm   6.0 mph 25% 0.00 in 1129.0 W/m2
13:25 85.1 °F 45.3 °F 29.68 in WSW 4.9 mph 5.0 mph 25% 0.00 in 304.0 W/m2
13:30 84.9 °F 44.1 °F 29.68 in NNE 2.0 mph 5.0 mph 24% 0.00 in 200.0 W/m2
13:36 84.6 °F 45.0 °F 29.67 in SW 2.0 mph 6.0 mph 25% 0.00 in 1114.0 W/m2
13:41 84.4 °F 44.8 °F 29.67 in WNW 4.0 mph 8.0 mph 25% 0.00 in 1009.0 W/m2
13:46 84.0 °F 44.4 °F 29.67 in NNW 6.9 mph 15.0 mph 25% 0.00 in 1025.0 W/m2
13:51 84.6 °F 43.9 °F 29.67 in WSW 2.9 mph 7.0 mph 24% 0.00 in 1041.0 W/m2
13:56 84.9 °F 44.1 °F 29.67 in SSW 0.9 mph 4.0 mph 24% 0.00 in 1088.0 W/m2
14:01 84.9 °F 44.1 °F 29.67 in WSW 12.1 mph 12.1 mph 24% 0.00 in 1062.0 W/m2
14:06 84.7 °F 42.8 °F 29.67 in West 8.9 mph 12.0 mph 23% 0.00 in 1079.0 W/m2
14:11 84.6 °F 43.9 °F 29.66 in West 10.1 mph 10.1 mph 24% 0.00 in 1039.0 W/m2
14:16 84.4 °F 43.7 °F 29.67 in WSW 4.9 mph 5.0 mph 24% 0.00 in 211.0 W/m2
14:21 83.7 °F 41.9 °F 29.66 in WSW 2.9 mph 9.0 mph 23% 0.00 in 257.0 W/m2
14:26 82.8 °F 42.3 °F 29.66 in Calm   8.0 mph 24% 0.00 in 213.0 W/m2
14:32 82.8 °F 44.4 °F 29.66 in Calm   9.0 mph 26% 0.00 in 1048.0 W/m2
14:37 83.5 °F 43.0 °F 29.66 in WNW 4.0 mph 8.0 mph 24% 0.00 in 1072.0 W/m2
14:42 83.3 °F 39.4 °F 29.65 in South 4.9 mph 9.0 mph 21% 0.00 in 237.0 W/m2
14:47 83.5 °F 39.4 °F 29.65 in SW 8.1 mph 12.0 mph 21% 0.00 in 1048.0 W/m2
14:52 83.7 °F 39.6 °F 29.65 in SW 2.9 mph 17.0 mph 21% 0.00 in 962.0 W/m2
14:57 84.0 °F 38.7 °F 29.65 in WSW 2.0 mph 10.0 mph 20% 0.00 in 144.0 W/m2
15:02 83.5 °F 38.1 °F 29.65 in SSW 6.0 mph 9.0 mph 20% 0.00 in 911.0 W/m2
15:07 83.3 °F 39.4 °F 29.65 in WSW 4.0 mph 7.0 mph 21% 0.00 in 158.0 W/m2
15:13 83.3 °F 39.4 °F 29.65 in West 2.9 mph 8.0 mph 21% 0.00 in 912.0 W/m2
15:18 84.0 °F 38.7 °F 29.65 in WSW 2.9 mph 7.0 mph 20% 0.00 in 877.0 W/m2
15:23 84.4 °F 37.6 °F 29.65 in WSW 4.9 mph 11.0 mph 19% 0.00 in 812.0 W/m2
15:28 84.4 °F 39.0 °F 29.65 in WSW 4.0 mph 10.0 mph 20% 0.00 in 795.0 W/m2
15:33 84.7 °F 40.5 °F 29.65 in WSW 4.9 mph 15.0 mph 21% 0.00 in 782.0 W/m2
15:38 84.9 °F 40.6 °F 29.65 in West 2.0 mph 9.0 mph 21% 0.00 in 766.0 W/m2
15:43 85.3 °F 41.0 °F 29.65 in WSW 4.0 mph 11.0 mph 21% 0.00 in 749.0 W/m2
15:48 85.3 °F 41.0 °F 29.65 in WSW 4.9 mph 9.0 mph 21% 0.00 in 731.0 W/m2
15:53 85.1 °F 39.6 °F 29.65 in WSW 2.9 mph 8.0 mph 20% 0.00 in 717.0 W/m2
15:59 85.3 °F 41.0 °F 29.65 in SE 2.9 mph 12.0 mph 21% 0.00 in 698.0 W/m2
16:04 85.5 °F 41.0 °F 29.65 in West 2.0 mph 10.0 mph 21% 0.00 in 686.0 W/m2
16:09 85.3 °F 41.0 °F 29.65 in West 4.0 mph 13.0 mph 21% 0.00 in 693.0 W/m2
16:14 84.7 °F 40.5 °F 29.65 in WSW 2.0 mph 9.0 mph 21% 0.00 in 684.0 W/m2
16:19 84.4 °F 40.1 °F 29.65 in South 6.9 mph 14.0 mph 21% 0.00 in 657.0 W/m2
16:24 84.0 °F 39.9 °F 29.65 in SW 8.1 mph 10.0 mph 21% 0.00 in 642.0 W/m2
16:29 83.7 °F 38.3 °F 29.65 in West 4.9 mph 11.0 mph 20% 0.00 in 659.0 W/m2
16:34 83.8 °F 37.2 °F 29.65 in West 6.0 mph 9.0 mph 19% 0.00 in 636.0 W/m2
16:39 83.8 °F 37.2 °F 29.65 in West 4.0 mph 14.0 mph 19% 0.00 in 527.0 W/m2
16:45 84.0 °F 38.7 °F 29.65 in SW 0.9 mph 2.0 mph 20% 0.00 in 554.0 W/m2
16:50 84.4 °F 34.9 °F 29.65 in WSW 2.9 mph 12.0 mph 17% 0.00 in 536.0 W/m2
16:55 84.4 °F 37.6 °F 29.65 in WSW 13.0 mph 13.0 mph 19% 0.00 in 508.0 W/m2
17:00 84.4 °F 37.6 °F 29.65 in West 0.9 mph 10.0 mph 19% 0.00 in 485.0 W/m2
17:05 84.4 °F 37.6 °F 29.65 in WSW 4.9 mph 11.0 mph 19% 0.00 in 464.0 W/m2
17:10 84.2 °F 38.8 °F 29.65 in West 4.9 mph 8.0 mph 20% 0.00 in 448.0 W/m2
17:15 84.2 °F 37.4 °F 29.65 in SW 2.0 mph 9.0 mph 19% 0.00 in 318.0 W/m2
17:20 83.8 °F 37.2 °F 29.65 in SSW 4.0 mph 8.0 mph 19% 0.00 in 417.0 W/m2
17:25 83.8 °F 38.5 °F 29.65 in West 8.1 mph 9.0 mph 20% 0.00 in 376.0 W/m2
17:31 84.0 °F 38.7 °F 29.65 in West 2.9 mph 7.0 mph 20% 0.00 in 394.0 W/m2
17:37 84.4 °F 37.6 °F 29.65 in WSW 2.9 mph 8.0 mph 19% 0.00 in 374.0 W/m2
17:42 84.6 °F 37.8 °F 29.65 in West 8.1 mph 13.0 mph 19% 0.00 in 332.0 W/m2
17:47 84.4 °F 37.6 °F 29.65 in West 6.9 mph 12.0 mph 19% 0.00 in 309.0 W/m2
17:52 84.0 °F 38.7 °F 29.65 in WNW 6.0 mph 7.0 mph 20% 0.00 in 274.0 W/m2
17:57 83.5 °F 39.4 °F 29.65 in West 4.9 mph 6.0 mph 21% 0.00 in 60.0 W/m2
18:02 82.9 °F 39.0 °F 29.65 in WSW 2.9 mph 8.0 mph 21% 0.00 in 244.0 W/m2
18:07 82.8 °F 40.1 °F 29.65 in West 2.9 mph 10.0 mph 22% 0.00 in 207.0 W/m2
18:13 82.6 °F 41.0 °F 29.65 in NW 4.0 mph 8.0 mph 23% 0.00 in 192.0 W/m2
18:18 81.9 °F 40.5 °F 29.65 in WSW 4.9 mph 8.0 mph 23% 0.00 in 160.0 W/m2
18:24 81.7 °F 40.3 °F 29.65 in SE 2.0 mph 9.0 mph 23% 0.00 in 137.0 W/m2
18:29 81.3 °F 39.9 °F 29.65 in WNW 2.9 mph 13.0 mph 23% 0.00 in 111.0 W/m2
18:34 80.8 °F 40.6 °F 29.66 in West 4.9 mph 8.0 mph 24% 0.00 in 88.0 W/m2
18:39 80.4 °F 40.3 °F 29.66 in WNW 4.0 mph 9.0 mph 24% 0.00 in 69.0 W/m2
18:44 80.2 °F 40.1 °F 29.66 in WSW 2.9 mph 8.0 mph 24% 0.00 in 39.0 W/m2
18:49 79.7 °F 40.8 °F 29.66 in West 2.9 mph 8.0 mph 25% 0.00 in 21.0 W/m2
18:54 79.2 °F 40.3 °F 29.66 in NNW 6.0 mph 7.0 mph 25% 0.00 in 14.0 W/m2
18:59 78.4 °F 40.6 °F 29.67 in SSW 4.9 mph 12.0 mph 26% 0.00 in 11.0 W/m2
19:04 78.1 °F 41.4 °F 29.67 in WSW 4.9 mph 8.0 mph 27% 0.00 in 7.0 W/m2
19:09 77.4 °F 40.8 °F 29.67 in WSW 6.9 mph 10.0 mph 27% 0.00 in 5.0 W/m2
19:15 76.8 °F 41.2 °F 29.68 in WSW 6.9 mph 8.0 mph 28% 0.00 in 0.0 W/m2
19:20 76.6 °F 42.1 °F 29.68 in WSW 8.1 mph 8.1 mph 29% 0.00 in 0.0 W/m2
19:25 76.3 °F 42.6 °F 29.68 in WSW 2.0 mph 8.0 mph 30% 0.00 in 0.0 W/m2
19:30 75.9 °F 42.3 °F 29.69 in WSW 4.0 mph 9.0 mph 30% 0.00 in 0.0 W/m2
19:35 75.6 °F 42.8 °F 29.69 in West 8.1 mph 8.1 mph 31% 0.00 in 0.0 W/m2
19:40 75.4 °F 42.6 °F 29.69 in WSW 4.9 mph 8.0 mph 31% 0.00 in 0.0 W/m2
19:45 75.0 °F 42.3 °F 29.69 in WSW 6.9 mph 9.0 mph 31% 0.00 in 0.0 W/m2
19:50 74.8 °F 42.3 °F 29.70 in WSW 4.0 mph 8.0 mph 31% 0.00 in 0.0 W/m2
19:56 74.5 °F 42.6 °F 29.70 in SSW 2.0 mph 8.0 mph 32% 0.00 in 0.0 W/m2
20:02 74.1 °F 41.5 °F 29.70 in WSW 2.0 mph 7.0 mph 31% 0.00 in 0.0 W/m2
20:07 74.1 °F 41.5 °F 29.71 in SW 2.9 mph 6.0 mph 31% 0.00 in 0.0 W/m2
20:12 73.8 °F 42.1 °F 29.71 in SSW 2.0 mph 3.0 mph 32% 0.00 in 0.0 W/m2
20:17 73.6 °F 41.9 °F 29.71 in WSW 2.9 mph 6.0 mph 32% 0.00 in 0.0 W/m2
20:22 73.4 °F 41.7 °F 29.71 in West 2.9 mph 6.0 mph 32% 0.00 in 0.0 W/m2
20:27 73.2 °F 40.8 °F 29.72 in SW 4.0 mph 7.0 mph 31% 0.00 in 0.0 W/m2
20:32 73.0 °F 39.7 °F 29.72 in Calm   8.0 mph 30% 0.00 in 0.0 W/m2
20:37 72.9 °F 40.5 °F 29.72 in West 2.9 mph 8.0 mph 31% 0.00 in 0.0 W/m2
20:42 72.7 °F 40.3 °F 29.72 in WSW 2.0 mph 4.0 mph 31% 0.00 in 0.0 W/m2
20:48 72.3 °F 39.9 °F 29.72 in Calm   2.0 mph 31% 0.00 in 0.0 W/m2
20:53 72.1 °F 39.9 °F 29.72 in WSW 2.9 mph 5.0 mph 31% 0.00 in 0.0 W/m2
20:58 72.0 °F 40.5 °F 29.72 in Calm   2.0 mph 32% 0.00 in 0.0 W/m2
21:03 71.8 °F 40.3 °F 29.73 in West 0.9 mph 3.0 mph 32% 0.00 in 0.0 W/m2
21:08 71.4 °F 40.8 °F 29.73 in Calm   3.0 mph 33% 0.00 in 0.0 W/m2
21:13 71.1 °F 40.5 °F 29.73 in Calm   6.0 mph 33% 0.00 in 0.0 W/m2
21:18 70.9 °F 40.3 °F 29.73 in Calm   1.0 mph 33% 0.00 in 0.0 W/m2
21:24 70.5 °F 40.8 °F 29.74 in Calm     34% 0.00 in 0.0 W/m2
21:29 70.2 °F 41.2 °F 29.74 in Calm     35% 0.00 in 0.0 W/m2
21:35 70.0 °F 41.0 °F 29.74 in Calm   1.0 mph 35% 0.00 in 0.0 W/m2
21:40 69.8 °F 41.0 °F 29.74 in Calm     35% 0.00 in 0.0 W/m2
21:45 69.4 °F 41.4 °F 29.74 in Calm     36% 0.00 in 0.0 W/m2
21:50 69.3 °F 41.9 °F 29.75 in Calm   1.0 mph 37% 0.00 in 0.0 W/m2
21:55 69.1 °F 41.0 °F 29.75 in Calm     36% 0.00 in 0.0 W/m2
22:00 68.5 °F 41.9 °F 29.75 in Calm   1.0 mph 38% 0.00 in 0.0 W/m2
22:05 68.4 °F 41.0 °F 29.75 in Calm     37% 0.00 in 0.0 W/m2
22:10 68.2 °F 41.5 °F 29.75 in Calm   1.0 mph 38% 0.00 in 0.0 W/m2
22:15 67.8 °F 41.9 °F 29.75 in Calm     39% 0.00 in 0.0 W/m2
22:21 67.6 °F 42.4 °F 29.76 in Calm     40% 0.00 in 0.0 W/m2
22:26 67.3 °F 42.1 °F 29.76 in Calm   2.0 mph 40% 0.00 in 0.0 W/m2
22:32 66.7 °F 43.5 °F 29.76 in Calm   2.0 mph 43% 0.00 in 0.0 W/m2
22:37 66.6 °F 42.8 °F 29.76 in Calm   1.0 mph 42% 0.00 in 0.0 W/m2
22:42 66.0 °F 42.8 °F 29.76 in Calm     43% 0.00 in 0.0 W/m2
22:47 65.8 °F 42.8 °F 29.76 in Calm     43% 0.00 in 0.0 W/m2
22:52 65.7 °F 43.2 °F 29.76 in Calm     44% 0.00 in 0.0 W/m2
22:57 65.5 °F 44.2 °F 29.76 in Calm   2.0 mph 46% 0.00 in 0.0 W/m2
23:03 65.1 °F 44.4 °F 29.76 in Calm   1.0 mph 47% 0.00 in 0.0 W/m2
23:08 64.8 °F 45.1 °F 29.76 in Calm   2.0 mph 49% 0.00 in 0.0 W/m2
23:13 64.6 °F 45.0 °F 29.76 in Calm   1.0 mph 49% 0.00 in 0.0 W/m2
23:18 64.2 °F 44.6 °F 29.76 in Calm     49% 0.00 in 0.0 W/m2
23:23 64.0 °F 44.4 °F 29.76 in Calm   1.0 mph 49% 0.00 in 0.0 W/m2
23:28 63.7 °F 43.7 °F 29.76 in Calm   1.0 mph 48% 0.00 in 0.0 W/m2
23:33 63.5 °F 43.0 °F 29.76 in Calm   1.0 mph 47% 0.00 in 0.0 W/m2
23:38 63.3 °F 43.3 °F 29.76 in Calm   1.0 mph 48% 0.00 in 0.0 W/m2
23:44 63.1 °F 44.8 °F 29.77 in Calm   1.0 mph 51% 0.00 in 0.0 W/m2
23:49 63.1 °F 44.2 °F 29.76 in Calm     50% 0.00 in 0.0 W/m2
23:54 63.0 °F 44.6 °F 29.76 in Calm     51% 0.00 in 0.0 W/m2
23:59 63.0 °F 44.6 °F 29.76 in Calm     51% 0.00 in 0.0 W/m2
Olympia, Windhoek, Namibia
Compliments of Weather Underground - 3.25 mb